Current weather by "City, St" or "zip code"  
 
Advertise Here

Current Conditions: Reedsville / Mifflin, PA

Overcast


72.0 F

Last Updated on Sep 16 2021, 8:15 pm EDT
Humidity: 88%
Wind Speed: NE 4.6 mph
Barometer 30.21 in
Dewpoint: 68.0 F
Visibility: 10.00 mi
Precip: --
Heat Index: NA
Wind Chill: NA
Current conditions at:

Reedsville / Mifflin, PA (KRVL)

Lat: 40.68333 Lon: 77.63333

Local Radar Image active severe weather and emergency alerts image image weather storm and storm spotter reports image weather observation monitoring service image
Local
Radar
Active
Alerts
Storm Reports Obs
Monitoring

Sign-up For Email & Text Message Weather Alert Notification Services



Advertise Here

Observation History for Reedsville / Mifflin, PA


Time Wind
(mph)
Vis
(mi)
Weather Precip (in) Temperature (F) Relative
Humidity
Wind
Chill
(F)
Heat
Index
(F)
Pressure
Air Dwpt altimeter
(in)
sea level
(mb)
Rmks
8:15 pm EDT NE 4.6 10.00 Overcast -- 72.0 68.0 88% NA NA 30.21 M
7:55 pm EDT NE 3.5 10.00 Overcast -- 73.0 68.0 83% NA NA 30.20 M
5:35 pm EDT 4.6 10.00 Mostly Cloudy -- 75.0 69.8 83% NA NA 30.16 M
4:55 pm EDT 3.5 10.00 Mostly Cloudy -- 75.0 68.0 78% NA NA 30.16 M
3:55 pm EDT 5.8 10.00 Overcast -- 75.0 68.0 78% NA NA 30.16 M
1:35 pm EDT NE 4.6 8.00 Mostly Cloudy -- 73.0 66.2 78% NA NA 30.20 M
12:55 pm EDT N 4.6 10.00 Mostly Cloudy -- 72.0 66.2 83% NA NA 30.21 M
11:55 am EDT NE 5.8 10.00 Overcast -- 70.0 66.2 88% NA NA 30.21 M
10:55 am EDT NE 4.6 10.00 Overcast -- 68.0 66.2 94% NA NA 30.21 M
9:55 am EDT NE 5.8 10.00 Overcast -- 68.0 66.2 94% NA NA 30.20 M
8:55 am EDT NE 5.8 10.00 NULL -- 68.0 66.2 94% NA NA 30.19 M
7:55 am EDT N 0.0 10.00 Overcast -- 66.0 66.2 100% NA NA 30.17 M
6:55 am EDT N 0.0 9.00 Overcast -- 66.0 66.2 100% NA NA 30.15 M
5:55 am EDT N 0.0 10.00 Overcast -- 66.0 66.2 100% NA NA 30.13 M
4:55 am EDT NE 4.6 10.00 Overcast -- 66.0 66.2 100% NA NA 30.11 M
3:55 am EDT NE 4.6 10.00 Overcast -- 66.0 66.2 100% NA NA 30.10 M
2:55 am EDT NE 4.6 10.00 Overcast -- 68.0 68.0 100% NA NA 30.10 M
1:55 am EDT N 0.0 5.00 Light Rain -- 68.0 68.0 100% NA NA 30.09 M
12:55 am EDT N 0.0 9.00 Mostly Cloudy -- 68.0 68.0 100% NA NA 30.08 M

Regional Weather Observation


Reedsville / Mifflin, PA (KRVL)

Overcast
72.0 F

Clearfield, Clearfield-Lawrence Airport, PA (KFIG)

Fair
65.0 F

Altoona - Blair County Airport, PA (KAOO)

Overcast
70.0 F

St Marys Municipal Airport, PA (KOYM)

Overcast
64.0 F

Du Bois - Jefferson County Airport, PA (KDUJ)

Mostly Cloudy
65.0 F

Wellsboro Johnston Airport, PA (KN38)

Overcast
64.0 F
Advertise Here


Advertise Here